Tracking 30258 objects as of 19-Feb-2025
HD Live streaming from Space Station
objects crossing your sky now

GEESAT 3-03

Track GEESAT 3-03 now!
10-day predictions


NORAD ID: 61013
Int'l Code: 2024-159C
Perigee: 594.2 km
Apogee: 601.2 km
Inclination: 50.0 °
Period: 96.5 minutes
Semi major axis: 6968 km
RCS: Unknown
Launch date: September 5, 2024
Source: People's Republic of China (PRC)
Launch site: Taiyaun Space Center, China (TSC)
Your satellite tracking list
Your tracking list is empty




NASA's NSSDC Master Catalog

Two Line Element Set (TLE):
1 61013U 24159C   25050.49865287  .00012390  00000-0  12189-2 0  9991
2 61013  49.9924 175.1521 0005082 160.6617 199.4518 14.92363741 25660
Source of the keplerian elements: AFSPC